Precipitable_Water
0.91 0.83 0.74 0.60 0.57 0.58 0.59 0.61 0.63 0.63 0.64 0.63 0.62 0.60 0.57 0.52 0.40 0.32 0.29 0.27 0.28 0.29
0.87 0.80 0.65 0.58 0.58 0.58 0.59 0.60 0.61 0.62 0.63 0.62 0.60 0.60 0.58 0.49 0.38 0.33 0.30 0.31 0.33 0.34
0.80 0.70 0.60 0.59 0.58 0.58 0.58 0.59 0.60 0.62 0.62 0.61 0.60 0.60 0.55 0.44 0.37 0.32 0.33 0.35 0.34 0.31
0.69 0.61 0.60 0.60 0.59 0.58 0.59 0.60 0.62 0.63 0.62 0.61 0.59 0.58 0.49 0.41 0.35 0.35 0.35 0.33 0.30 0.28
0.63 0.61 0.60 0.58 0.59 0.60 0.61 0.63 0.63 0.63 0.63 0.60 0.59 0.55 0.45 0.38 0.35 0.34 0.31 0.30 0.28 0.25
0.61 0.60 0.59 0.59 0.61 0.61 0.63 0.64 0.64 0.63 0.61 0.60 0.58 0.48 0.39 0.34 0.33 0.32 0.31 0.29 0.25 0.22
0.61 0.61 0.60 0.61 0.62 0.62 0.64 0.63 0.63 0.62 0.62 0.60 0.51 0.40 0.33 0.33 0.33 0.31 0.30 0.26 0.24 0.23
0.62 0.62 0.61 0.61 0.62 0.64 0.63 0.63 0.63 0.62 0.60 0.52 0.41 0.32 0.33 0.33 0.32 0.30 0.26 0.25 0.24 0.24
0.62 0.61 0.60 0.62 0.63 0.63 0.63 0.64 0.62 0.60 0.50 0.40 0.31 0.31 0.33 0.33 0.30 0.26 0.25 0.24 0.24 0.24
0.60 0.60 0.62 0.62 0.62 0.63 0.63 0.62 0.58 0.49 0.37 0.29 0.29 0.31 0.32 0.29 0.27 0.26 0.25 0.24 0.24 0.24
0.61 0.61 0.62 0.63 0.63 0.62 0.62 0.54 0.45 0.33 0.29 0.29 0.30 0.30 0.27 0.27 0.26 0.26 0.26 0.24 0.23 0.23
0.64 0.64 0.63 0.62 0.62 0.58 0.50 0.39 0.30 0.28 0.29 0.30 0.27 0.25 0.25 0.27 0.27 0.25 0.23 0.23 0.23 0.22
0.65 0.64 0.62 0.59 0.53 0.45 0.33 0.29 0.27 0.30 0.30 0.27 0.23 0.24 0.25 0.27 0.26 0.22 0.21 0.22 0.22 0.22
0.62 0.59 0.55 0.48 0.36 0.31 0.28 0.28 0.30 0.28 0.25 0.24 0.24 0.24 0.25 0.24 0.24 0.22 0.22 0.20 0.19 0.19
Wind_Speed
23 22 22 21 19 18 17 17 18 19 21 23 25 27 29 31 31 32 33 35 36 38
23 22 22 21 19 18 18 18 19 21 23 25 27 29 31 32 33 34 35 37 39 40
23 22 22 20 19 19 19 19 21 22 24 26 29 31 33 34 35 36 37 39 41 42
23 22 21 20 19 19 19 20 22 24 26 29 31 33 34 35 37 38 39 40 42 43
23 22 21 20 20 20 20 22 23 26 28 30 33 34 36 37 38 39 40 42 43 45
22 21 20 20 20 20 21 23 25 27 29 32 35 37 37 38 39 40 42 43 44 46
22 21 20 20 20 21 22 24 26 29 31 34 36 37 38 39 41 42 43 44 46 47
21 20 20 20 21 22 23 26 28 31 33 35 36 37 39 40 41 42 43 45 47 48
20 19 19 20 21 23 25 27 30 32 34 35 36 38 40 41 42 43 45 47 48 50
19 18 19 20 22 24 26 28 30 33 34 35 37 39 40 42 43 44 46 48 50 51
18 18 19 21 23 24 26 29 31 32 34 36 38 39 41 43 43 45 47 49 51 53
17 18 20 21 22 25 27 29 31 33 35 37 38 40 42 43 45 46 49 50 52 54
17 17 19 21 23 25 27 29 31 33 35 37 38 40 43 44 46 48 50 52 53 54
15 17 19 20 23 25 27 29 31 33 35 37 39 41 43 45 47 50 52 53 54 54
Wind_Direction
220 221 222 226 232 241 251 261 270 280 288 295 300 303 306 307 306 306 305 305 305 305
221 221 223 227 236 246 255 265 274 282 290 296 301 304 306 306 306 306 306 306 306 306
219 220 224 232 240 250 260 268 277 285 292 297 301 304 306 306 306 307 307 307 307 307
218 221 228 236 245 255 264 272 280 287 294 298 302 305 306 307 307 307 308 308 308 308
219 224 232 241 250 259 268 277 284 290 295 300 303 305 306 307 308 308 309 309 309 309
223 229 236 245 254 264 272 280 287 293 297 301 304 306 307 307 308 309 309 310 310 310
226 233 241 250 259 268 277 284 290 295 299 302 305 306 307 308 309 309 310 311 311 311
229 236 245 255 264 273 281 287 293 297 301 304 306 307 308 309 309 310 310 311 312 312
232 241 251 260 269 278 285 291 295 300 303 305 306 308 309 310 310 311 311 312 312 312
236 246 256 266 275 283 289 294 298 301 304 306 308 309 310 311 311 312 312 313 313 313
241 252 263 273 281 287 292 297 300 303 305 307 309 311 311 312 312 313 313 314 314 314
251 262 271 279 285 290 295 299 303 305 307 309 310 312 313 314 314 314 315 315 315 315
260 268 276 283 289 294 299 302 305 307 309 310 312 314 315 315 315 315 316 317 317 317
267 276 283 289 294 298 302 305 307 309 311 313 314 315 316 317 317 317 317 318 318 318